This is the latest recevied weather packets stored in our database for station/object KD7YDD. If no packets are shown the sender has not sent any weather packets the latest 10 day(s).
| Time | Temp. | Humidity | Pressure | Rain* | Wind** | Luminosity | Snow |
|---|---|---|---|---|---|---|---|
| 1777815083 | 11.67° C | 88% | 1011.4 hPa | 0 mm | - | 0 W/m² | - |
| 1777813877 | 11.67° C | 88% | 1011.3 hPa | 0 mm | - | 0 W/m² | - |
| 1777811477 | 11.67° C | 88% | 1011.1 hPa | 0 mm | - | 0 W/m² | - |
| 1777809676 | 11.67° C | 88% | 1011.1 hPa | 0 mm | - | 0 W/m² | - |
| 1777807881 | 11.67° C | 88% | 1011.2 hPa | 0 mm | - | 0 W/m² | - |
| 1777804876 | 12.22° C | 88% | 1011.2 hPa | 0 mm | - | 0 W/m² | - |
| 1777798325 | 12.22° C | 86% | 1011.9 hPa | 0 mm | - | 0 W/m² | - |
| 1777797678 | 12.22° C | 86% | 1012 hPa | 0 mm | - | 0 W/m² | - |
| 1777792276 | 12.22° C | 86% | 1012.1 hPa | 0 mm | - | 0 W/m² | - |
| 1777790477 | 12.22° C | 85% | 1012.4 hPa | 0 mm | - | 0 W/m² | - |
| 1777784477 | 12.22° C | 83% | 1012.5 hPa | 0 mm | - | 0 W/m² | - |
| 1777783297 | 12.78° C | 83% | 1012.5 hPa | 0 mm | - | 0 W/m² | - |
| 1777782081 | 12.78° C | 83% | 1012.4 hPa | 0 mm | - | 0 W/m² | - |
| 1777780876 | 12.78° C | 83% | 1012.1 hPa | 0 mm | - | 0 W/m² | - |
| 1777779076 | 12.78° C | 81% | 1011.8 hPa | 0 mm | - | 0 W/m² | - |
| 1777774876 | 13.33° C | 79% | 1011.6 hPa | 0 mm | - | 16 W/m² | - |
| 1777773076 | 13.89° C | 77% | 1011.7 hPa | 0 mm | - | 25 W/m² | - |
| 1777764076 | 16.11° C | 74% | 1012.2 hPa | 0 mm | - | 128 W/m² | - |
| 1777761078 | 15.56° C | 76% | 1012.8 hPa | 0 mm | - | 244 W/m² | - |
| 1777755696 | 14.44° C | 81% | 1013.6 hPa | 0 mm | - | 113 W/m² | - |
| 1777753275 | 13.89° C | 82% | 1013.7 hPa | 0 mm | - | 95 W/m² | - |
| 1777749675 | 13.89° C | 82% | 1014.2 hPa | 0 mm | - | 79 W/m² | - |
| 1777739477 | 11.67° C | 87% | 1013.7 hPa | 0 mm | - | 49 W/m² | - |
| 1777738877 | 11.67° C | 87% | 1013.9 hPa | 0 mm | - | 51 W/m² | - |
| 1777736478 | 11.67° C | 88% | 1013.7 hPa | 0 mm | - | 30 W/m² | - |
* Rain latest hour (hover to see other rain measurements)
** Current wind speed in m/s (hover to see current wind gust speed)